• In Hungary
  • List of Countries
  • For 7 days
  • Water Temperature
  • Satellite Maps
  • Weather Map
  • News
  • Weather Widgets
  • user-avatar
    Login

    Hourly Weather Myczkow

    Today, 11 December, Monday

    Time Temperature Precipitation Wind Pressure Humidity
    00:00 -7°C° 0 mm 10 mps 706 mmHg 73%
    01:00 -5°C° 0 mm 10 mps 706 mmHg 73%
    02:00 -5°C° 0.1 mm 9 mps 706 mmHg 75%
    03:00 -5°C° 0.1 mm 9 mps 706 mmHg 77%
    04:00 -5°C° 0.1 mm 9 mps 706 mmHg 79%
    05:00 -4°C° 0.2 mm 9 mps 706 mmHg 80%
    06:00 -4°C° 0.2 mm 9 mps 706 mmHg 81%
    07:00 -3°C° 0.2 mm 9 mps 706 mmHg 82%
    08:00 -3°C° 0.1 mm 9 mps 706 mmHg 82%
    09:00 -1°C° 0.1 mm 9 mps 706 mmHg 82%
    10:00 0°C° 0.1 mm 9 mps 706 mmHg 82%
    11:00 0°C° 0 mm 9 mps 706 mmHg 82%
    12:00 +1°C° 0 mm 9 mps 706 mmHg 81%
    13:00 +1°C° 0 mm 9 mps 706 mmHg 81%
    14:00 +1°C° 0 mm 9 mps 706 mmHg 82%
    15:00 +2°C° 0 mm 9 mps 706 mmHg 83%
    16:00 +2°C° 0 mm 9 mps 706 mmHg 83%
    17:00 +2°C° 0 mm 9 mps 706 mmHg 83%
    18:00 +2°C° 0 mm 9 mps 706 mmHg 82%
    19:00 +2°C° 0 mm 9 mps 706 mmHg 82%
    20:00 +3°C° 0 mm 9 mps 706 mmHg 81%
    21:00 +3°C° 0 mm 9 mps 707 mmHg 81%
    22:00 +3°C° 0 mm 9 mps 707 mmHg 80%
    23:00 +3°C° 0 mm 10 mps 707 mmHg 79%

    Tomorrow, 12 December, Tuesday

    Time Temperature Precipitation Wind Pressure Humidity
    00:00 +3°C° 0 mm 10 mps 707 mmHg 79%
    01:00 +3°C° 0 mm 10 mps 708 mmHg 78%
    02:00 +3°C° 0 mm 10 mps 708 mmHg 78%
    03:00 +3°C° 0 mm 10 mps 708 mmHg 78%
    04:00 +3°C° 0 mm 10 mps 708 mmHg 78%
    05:00 +3°C° 0 mm 10 mps 708 mmHg 78%
    06:00 +3°C° 0 mm 10 mps 708 mmHg 78%
    07:00 +3°C° 0 mm 9 mps 709 mmHg 77%
    08:00 +3°C° 0 mm 9 mps 709 mmHg 77%
    09:00 +5°C° 0 mm 9 mps 709 mmHg 76%
    10:00 +5°C° 0 mm 9 mps 710 mmHg 75%
    11:00 +5°C° 0 mm 8 mps 710 mmHg 77%
    12:00 +6°C° 0 mm 8 mps 711 mmHg 78%
    13:00 +6°C° 0 mm 7 mps 711 mmHg 79%
    14:00 +6°C° 0 mm 7 mps 711 mmHg 80%
    15:00 +7°C° 0 mm 6 mps 712 mmHg 81%
    16:00 +7°C° 0 mm 6 mps 712 mmHg 82%
    17:00 +5°C° 0.2 mm 6 mps 713 mmHg 83%
    18:00 +6°C° 0.2 mm 5 mps 713 mmHg 83%
    19:00 +6°C° 0.2 mm 5 mps 713 mmHg 84%
    20:00 +5°C° 0.8 mm 4 mps 714 mmHg 86%
    21:00 +5°C° 0.8 mm 4 mps 714 mmHg 87%
    22:00 +4°C° 0.8 mm 3 mps 714 mmHg 89%
    23:00 +3°C° 1.7 mm 3 mps 715 mmHg 89%

    Day after tomorrow, 13 December, Wednesday

    Time Temperature Precipitation Wind Pressure Humidity
    00:00 +2°C° 1.7 mm 3 mps 715 mmHg 88%
    01:00 +2°C° 1.7 mm 3 mps 715 mmHg 88%
    02:00 +1°C° 1.4 mm 3 mps 716 mmHg 88%
    03:00 +2°C° 1.4 mm 2 mps 716 mmHg 88%
    04:00 +1°C° 1.4 mm 2 mps 716 mmHg 89%
    05:00 +1°C° 0.7 mm 2 mps 716 mmHg 89%
    06:00 +2°C° 0.7 mm 1 mps 717 mmHg 90%
    07:00 +2°C° 0.7 mm 1 mps 717 mmHg 90%
    08:00 +2°C° 0.2 mm 1 mps 718 mmHg 89%
    09:00 +2°C° 0.2 mm 1 mps 718 mmHg 88%
    10:00 +2°C° 0.2 mm 1 mps 718 mmHg 87%
    11:00 +2°C° 0 mm 1 mps 718 mmHg 86%
    12:00 +2°C° 0 mm 1 mps 718 mmHg 84%
    13:00 +2°C° 0 mm 1 mps 718 mmHg 83%
    14:00 +2°C° 0 mm 1 mps 718 mmHg 85%
    15:00 +1°C° 0 mm 1 mps 717 mmHg 88%
    16:00 -1°C° 0 mm 0 mps 717 mmHg 90%
    17:00 0°C° 0 mm 1 mps 717 mmHg 90%
    18:00 -1°C° 0 mm 1 mps 717 mmHg 90%
    19:00 -1°C° 0 mm 1 mps 716 mmHg 90%
    20:00 -1°C° 0 mm 1 mps 716 mmHg 90%
    21:00 -3°C° 0 mm 2 mps 716 mmHg 89%
    22:00 -3°C° 0 mm 2 mps 715 mmHg 89%
    23:00 -3°C° 0 mm 2 mps 715 mmHg 88%

    14 December, Thursday

    Time Temperature Precipitation Wind Pressure Humidity
    00:00 -4°C° 0 mm 3 mps 715 mmHg 88%
    01:00 -4°C° 0 mm 3 mps 714 mmHg 88%
    02:00 -3°C° 0 mm 4 mps 714 mmHg 86%
    03:00 -3°C° 0 mm 4 mps 713 mmHg 85%
    04:00 -4°C° 0 mm 5 mps 713 mmHg 84%
    05:00 -4°C° 0 mm 5 mps 713 mmHg 83%
    06:00 -4°C° 0 mm 5 mps 713 mmHg 83%
    07:00 -3°C° 0 mm 6 mps 713 mmHg 82%
    08:00 -3°C° 0 mm 6 mps 713 mmHg 82%
    09:00 -2°C° 0 mm 6 mps 712 mmHg 82%
    10:00 -2°C° 0 mm 7 mps 712 mmHg 82%
    11:00 -2°C° 0 mm 7 mps 712 mmHg 82%
    12:00 -1°C° 0 mm 7 mps 712 mmHg 82%
    13:00 -1°C° 0 mm 7 mps 711 mmHg 82%
    14:00 -1°C° 0 mm 7 mps 711 mmHg 83%
    15:00 -1°C° 0 mm 6 mps 711 mmHg 85%
    16:00 -2°C° 0 mm 6 mps 711 mmHg 86%
    17:00 -1°C° 0.1 mm 6 mps 711 mmHg 86%
    18:00 -1°C° 0.1 mm 6 mps 710 mmHg 86%
    19:00 -1°C° 0.1 mm 6 mps 710 mmHg 86%
    20:00 -1°C° 0.1 mm 6 mps 709 mmHg 86%
    21:00 0°C° 0.1 mm 7 mps 709 mmHg 86%
    22:00 0°C° 0.1 mm 7 mps 708 mmHg 86%
    23:00 0°C° 0.2 mm 7 mps 707 mmHg 86%

    15 December, Friday

    Time Temperature Precipitation Wind Pressure Humidity
    00:00 +1°C° 0.2 mm 6 mps 707 mmHg 87%
    01:00 +2°C° 0.2 mm 6 mps 707 mmHg 87%
    02:00 +2°C° 0.8 mm 6 mps 706 mmHg 87%
    03:00 +2°C° 0.8 mm 7 mps 705 mmHg 87%
    04:00 +2°C° 0.8 mm 7 mps 705 mmHg 87%
    05:00 +2°C° 0.3 mm 7 mps 705 mmHg 86%
    06:00 +3°C° 0.3 mm 7 mps 705 mmHg 86%
    07:00 +3°C° 0.3 mm 7 mps 705 mmHg 85%
    08:00 +3°C° 0.5 mm 7 mps 705 mmHg 87%
    09:00 +3°C° 0.5 mm 6 mps 706 mmHg 88%
    10:00 +3°C° 0.5 mm 5 mps 707 mmHg 90%
    11:00 +4°C° 0.6 mm 4 mps 707 mmHg 88%
    12:00 +3°C° 0.6 mm 3 mps 708 mmHg 86%
    13:00 +4°C° 0.6 mm 2 mps 708 mmHg 84%
    14:00 +3°C° 0.3 mm 2 mps 708 mmHg 83%
    15:00 +4°C° 0.3 mm 1 mps 709 mmHg 83%
    16:00 +3°C° 0.3 mm 1 mps 709 mmHg 83%
    17:00 +3°C° 0.1 mm 1 mps 709 mmHg 83%
    18:00 +3°C° 0.1 mm 1 mps 709 mmHg 84%
    19:00 +3°C° 0.1 mm 1 mps 709 mmHg 84%
    20:00 +3°C° 0.7 mm 1 mps 709 mmHg 84%
    21:00 +3°C° 0.7 mm 1 mps 709 mmHg 85%
    22:00 +2°C° 0.7 mm 2 mps 709 mmHg 85%
    23:00 +1°C° 1.8 mm 2 mps 708 mmHg 87%

    16 December, Saturday

    Time Temperature Precipitation Wind Pressure Humidity
    00:00 +1°C° 1.8 mm 2 mps 708 mmHg 88%
    01:00 -1°C° 1.8 mm 3 mps 707 mmHg 90%
    02:00 -1°C° 1.5 mm 3 mps 707 mmHg 91%
    03:00 -1°C° 1.5 mm 3 mps 707 mmHg 93%
    04:00 -1°C° 1.5 mm 3 mps 707 mmHg 94%
    05:00 -1°C° 0.9 mm 3 mps 707 mmHg 94%
    06:00 -1°C° 0.9 mm 3 mps 707 mmHg 95%
    07:00 -2°C° 0.9 mm 3 mps 707 mmHg 96%
    08:00 -2°C° 1 mm 2 mps 707 mmHg 96%
    09:00 -1°C° 1 mm 2 mps 707 mmHg 96%
    10:00 -1°C° 1 mm 2 mps 708 mmHg 96%
    11:00 -1°C° 0.6 mm 2 mps 708 mmHg 96%
    12:00 -1°C° 0.6 mm 2 mps 708 mmHg 96%
    13:00 -1°C° 0.6 mm 2 mps 708 mmHg 96%
    14:00 -1°C° 0.5 mm 2 mps 708 mmHg 96%
    15:00 -1°C° 0.5 mm 2 mps 708 mmHg 96%
    16:00 -2°C° 0.5 mm 2 mps 709 mmHg 96%
    17:00 -2°C° 1 mm 3 mps 709 mmHg 95%
    18:00 -2°C° 1 mm 3 mps 709 mmHg 95%
    19:00 -2°C° 1 mm 3 mps 709 mmHg 95%
    20:00 -2°C° 1.1 mm 3 mps 710 mmHg 95%
    21:00 -2°C° 1.1 mm 3 mps 710 mmHg 95%
    22:00 -2°C° 1.1 mm 3 mps 710 mmHg 94%
    23:00 -2°C° 0.8 mm 3 mps 710 mmHg 94%
    Show more